Home   Weather   Warburg   Past weeks

Flag for Germany Past Weather in Warburg, North Rhine-Westphalia, Germany — Yesterday and Last 2 Weeks

Now
19 °F

Clear.


Feels Like: 19 °F
Forecast: 16 / 27 °F
Wind: 2 mph from West

Location: Kassel / Calden

Current Time: Jan 21, 2017 at 1:22:44 am

Latest Report: Jan 20, 2017 at 11:50 pm


Visibility: 10 mi

Pressure: 30.51 "Hg

Humidity: 93%

Dew Point: 18 °F

Location of WarburgLocation

Past Weather in Warburg — Graph

°F

Warburg Temperature Yesterday

Maximum temperature yesterday: 32 °F (at 1:20 pm)
Minimum temperature yesterday: 14 °F (at 2:20 am)
Average temperature yesterday: 24 °F

High & Low Weather Summary for the Past Weeks

 TemperatureHumidityPressure
High41 °F (Jan 11, 5:50 pm)100% (Jan 6, 7:20 am)30.72 "Hg (Jan 6, 7:20 am)
Low12 °F (Jan 6, 7:20 am)50% (Jan 15, 8:06 pm)28.91 "Hg (Jan 13, 3:20 am)
Average28 °F88%30.18 "Hg
* Reported Jan 5 11:20 pm — Jan 20 11:50 pm, Warburg, Weather by CustomWeather, © 2017

Note: Actual official high and low records may vary slightly from our data, if they occured in-between our weather recording intervals... More about our weather records

Advertising

Warburg Weather History for the Previous 24 Hours

Scroll right to see more
 ConditionsComfort  
Time TempWeatherWind HumidityBarometerVisibility
11:50 pm
Fri, Jan 20
19 °FClear.2 mph93%30.51 "Hg10 mi
11:20 pm19 °FClear.1 mph93%30.51 "Hg10 mi
10:50 pm19 °FClear.1 mph86%30.51 "Hg10 mi
10:20 pm21 °FClear.2 mph80%30.51 "Hg10 mi
9:50 pm23 °FClear.2 mph80%30.51 "Hg10 mi
9:20 pm21 °FClear.2 mph86%30.51 "Hg10 mi
8:50 pm23 °FClear.3 mph86%30.51 "Hg10 mi
8:20 pm23 °FClear.1 mph86%30.51 "Hg10 mi
7:50 pm23 °FClear.1 mph86%30.51 "Hg10 mi
7:20 pm25 °FClear.3 mph80%30.51 "Hg10 mi
6:50 pm23 °FClear.2 mph80%30.51 "Hg10 mi
6:20 pm25 °FClear.2 mph74%30.51 "Hg10 mi
5:50 pm25 °FClear.2 mph80%30.51 "Hg10 mi
5:20 pm27 °FClear.2 mph74%30.51 "Hg10 mi
4:50 pm28 °FClear.5 mph74%30.51 "Hg10 mi
4:20 pm30 °FSunny.3 mph69%30.51 "Hg10 mi
3:50 pm32 °FSunny.2 mph64%30.51 "Hg10 mi
3:20 pm32 °FSunny.1 mph69%30.51 "Hg10 mi
2:50 pm32 °FSunny.2 mph64%30.51 "Hg10 mi
2:20 pm32 °FScattered clouds.2 mph64%30.54 "HgN/A
1:50 pm32 °FScattered clouds.2 mph60%30.54 "HgN/A
1:20 pm32 °FScattered clouds.1 mph64%30.54 "HgN/A
12:50 pm28 °FPartly sunny.2 mph74%30.54 "HgN/A
12:20 pm28 °FPartly sunny.1 mph80%30.57 "HgN/A
11:50 am28 °FPartly sunny.3 mph74%30.57 "HgN/A
11:20 am27 °FPartly sunny.2 mph74%30.57 "HgN/A
10:50 am25 °FPartly sunny.1 mph80%30.57 "HgN/A
10:20 am25 °FPartly sunny.2 mph80%30.57 "HgN/A
9:50 am25 °FPartly sunny.2 mph80%30.57 "HgN/A
9:20 am23 °FPartly sunny.2 mph86%30.57 "HgN/A
8:50 am23 °FPartly sunny.1 mph86%30.57 "Hg6 mi
8:20 am21 °FPartly sunny.3 mph93%30.57 "Hg6 mi
7:50 am21 °FPassing clouds.1 mph93%30.57 "Hg6 mi
7:20 am21 °FPassing clouds.2 mph93%30.57 "Hg5 mi
3:20 am14 °FClear.3 mph100%30.57 "Hg4 mi
2:50 am16 °FClear.1 mph93%30.57 "Hg4 mi
2:20 am14 °FClear.1 mph100%30.57 "Hg4 mi
1:50 am16 °FClear.1 mph100%30.57 "Hg4 mi
1:20 am18 °FClear.2 mph93%30.60 "Hg4 mi
Weather by CustomWeather, © 2017

See weather overviewHow to use our weather pages